Tracking 29747 objects as of 9-Oct-2024
HD Live streaming from Space Station
objects crossing your sky now

STARLINK-5622

Track STARLINK-5622 now!
10-day predictions
STARLINK-5622 is classified as:


NORAD ID: 55358
Int'l Code: 2023-013AD
Perigee: 565.0 km
Apogee: 567.5 km
Inclination: 43.0 °
Period: 95.8 minutes
Semi major axis: 6937 km
RCS: Unknown
Launch date: January 26, 2023
Source: United States (US)
Launch site: AIR FORCE EASTERN TEST RANGE (AFETR)
Your satellite tracking list
Your tracking list is empty




NASA's NSSDC Master Catalog

Two Line Element Set (TLE):
1 55358U 23013AD  24283.56298992 -.00003311  00000-0 -23020-3 0  9994
2 55358  42.9995 224.5597 0001811 260.8987  99.1650 15.02521875 94077
Source of the keplerian elements: AFSPC